TimeMDT,TemperatureF,Dew PointF,Humidity,Sea Level PressureIn,VisibilityMPH,Wind Direction,Wind SpeedMPH,Gust SpeedMPH,PrecipitationIn,Events,Conditions,WindDirDegrees,DateUTC
12:53 AM,41.0,23.0,49,29.67,10.0,WSW,4.6,-,N/A,,Clear,240,2013-03-21 06:53:00
1:53 AM,42.1,23.0,47,29.65,10.0,West,15.0,-,N/A,,Clear,260,2013-03-21 07:53:00
2:53 AM,39.9,23.0,51,29.60,10.0,SW,15.0,20.7,N/A,,Clear,220,2013-03-21 08:53:00
3:53 AM,41.0,24.1,51,29.53,10.0,West,26.5,36.8,N/A,,Clear,280,2013-03-21 09:53:00
4:53 AM,41.0,24.1,51,29.53,10.0,West,23.0,29.9,N/A,,Clear,280,2013-03-21 10:53:00
5:53 AM,42.1,23.0,47,29.52,10.0,West,24.2,35.7,N/A,,Clear,280,2013-03-21 11:53:00
6:53 AM,43.0,21.9,43,29.52,10.0,WSW,18.4,24.2,N/A,,Clear,240,2013-03-21 12:53:00
7:53 AM,41.0,23.0,49,29.54,10.0,West,10.4,19.6,N/A,,Clear,270,2013-03-21 13:53:00
8:53 AM,43.0,24.1,47,29.50,10.0,WSW,9.2,-,N/A,,Overcast,250,2013-03-21 14:53:00
9:53 AM,44.1,24.1,45,29.49,10.0,WSW,9.2,-,N/A,,Overcast,250,2013-03-21 15:53:00
10:53 AM,45.0,24.1,44,29.48,10.0,SSE,13.8,18.4,N/A,,Overcast,160,2013-03-21 16:53:00
11:21 AM,44.6,24.8,46,29.57,10.0,SE,12.7,-,N/A,Thunderstorm,Overcast,130,2013-03-21 17:21:00
11:30 AM,42.8,26.6,53,29.58,2.5,SSE,8.1,-,N/A,Thunderstorm,Thunderstorm,150,2013-03-21 17:30:00
11:37 AM,42.8,26.6,53,29.60,10.0,SSW,8.1,-,N/A,Thunderstorm,Thunderstorm,200,2013-03-21 17:37:00
11:46 AM,39.2,28.4,65,29.61,2.0,West,18.4,28.8,0.00,Rain,Light Rain,280,2013-03-21 17:46:00
11:53 AM,36.0,30.0,79,29.57,2.0,West,17.3,28.8,0.00,Rain,Rain,270,2013-03-21 17:53:00
12:03 PM,33.8,30.2,87,29.63,2.0,WSW,10.4,-,0.02,Snow,Light Snow,250,2013-03-21 18:03:00
12:10 PM,33.8,30.2,87,29.62,3.0,SW,13.8,-,0.03,Snow,Light Snow,230,2013-03-21 18:10:00
12:21 PM,35.6,32.0,87,29.63,7.0,WSW,11.5,-,0.03,Snow,Light Snow,250,2013-03-21 18:21:00
12:43 PM,35.6,30.2,81,29.63,2.0,West,12.7,26.5,0.04,Snow,Light Snow,270,2013-03-21 18:43:00
12:53 PM,35.1,30.9,85,29.60,3.0,WSW,9.2,-,0.04,Snow,Light Snow,250,2013-03-21 18:53:00
1:12 PM,37.4,33.8,87,29.61,10.0,SSW,8.1,-,0.01,,Overcast,210,2013-03-21 19:12:00
1:53 PM,43.0,30.0,60,29.52,10.0,NW,12.7,19.6,0.01,,Overcast,320,2013-03-21 19:53:00
2:53 PM,42.1,25.0,51,29.53,10.0,West,19.6,26.5,N/A,,Mostly Cloudy,270,2013-03-21 20:53:00
3:53 PM,43.0,17.1,35,29.54,10.0,West,18.4,31.1,N/A,,Overcast,280,2013-03-21 21:53:00
4:53 PM,39.9,17.1,40,29.57,10.0,NW,21.9,31.1,N/A,,Partly Cloudy,320,2013-03-21 22:53:00
5:53 PM,39.9,6.1,25,29.62,10.0,WNW,32.2,42.6,N/A,,Clear,290,2013-03-21 23:53:00
6:53 PM,36.0,9.0,33,29.68,10.0,West,21.9,31.1,N/A,,Clear,280,2013-03-22 00:53:00
7:53 PM,34.0,10.9,38,29.73,10.0,WNW,20.7,36.8,N/A,,Scattered Clouds,290,2013-03-22 01:53:00
8:53 PM,30.9,16.0,54,29.77,10.0,NW,17.3,24.2,N/A,,Clear,310,2013-03-22 02:53:00
9:53 PM,30.0,15.1,54,29.80,10.0,NW,15.0,24.2,N/A,,Clear,310,2013-03-22 03:53:00
10:53 PM,28.9,15.1,56,29.81,10.0,WNW,15.0,21.9,N/A,,Clear,300,2013-03-22 04:53:00
11:53 PM,27.0,12.9,56,29.87,10.0,WNW,10.4,-,N/A,,Clear,300,2013-03-22 05:53:00